Theta_e
321 322 324 324 324 324 323 321 321 321 320 319 318 318 316 317 317 316 316 315 315 315 315 314 314 314 299 288 287 297 306 304 300 300 296 294 291 291 288 288 288 287 286 288 288 288 287
319 320 320 320 321 322 323 323 322 322 321 320 319 318 317 316 317 317 316 315 315 314 315 315 314 312 294 284 295 296 298 298 297 296 294 294 292 291 287 286 286 287 286 285 286 286 286
316 317 318 318 318 318 319 321 322 322 321 320 319 318 317 316 317 317 316 315 314 314 315 315 314 301 289 287 295 296 298 295 296 295 293 295 295 290 288 285 287 286 283 283 283 285 284
313 314 314 315 315 316 316 317 318 318 318 320 319 318 317 317 317 317 316 315 314 315 314 314 312 295 286 295 294 296 296 294 297 296 296 295 295 290 288 288 284 281 280 278 281 283 284
311 312 311 312 312 313 313 314 315 316 315 316 315 318 318 318 317 317 316 315 314 312 312 312 296 291 285 300 292 294 295 292 294 294 295 295 290 286 287 282 280 279 276 277 278 283 282
308 309 310 311 310 310 310 311 312 312 313 314 314 315 316 318 317 316 313 311 311 305 302 297 294 286 290 288 292 293 294 295 292 292 290 288 283 279 279 279 276 277 276 277 275 278 279
306 306 307 308 308 309 308 309 309 310 311 312 313 313 314 317 317 315 303 293 290 288 292 286 288 287 290 292 295 292 294 293 290 287 281 284 280 277 278 279 279 278 277 276 277 280 279
305 305 305 305 306 306 307 307 308 309 309 310 311 312 313 315 316 309 298 293 291 291 285 290 290 291 292 293 288 289 294 287 286 281 283 281 278 280 283 282 281 279 277 276 278 279 279
304 305 305 304 304 304 305 305 306 307 308 308 309 311 312 315 314 301 297 296 299 297 283 287 290 290 290 292 286 286 290 286 282 281 281 279 280 283 281 281 279 277 276 276 276 279 280
305 303 305 305 304 303 303 303 304 304 305 306 308 309 310 312 302 297 293 300 300 297 280 285 286 288 291 291 285 291 291 287 282 280 281 279 282 281 280 279 279 277 279 279 278 277 273
303 305 303 302 304 303 303 302 302 302 303 304 305 307 308 310 301 297 296 300 300 295 278 286 284 293 290 287 287 287 291 287 281 280 279 278 279 279 279 280 279 277 280 280 279 276 276
303 303 303 304 304 304 302 303 302 301 301 302 303 305 306 306 301 300 301 300 299 286 277 281 284 284 284 286 285 288 287 288 285 281 279 278 281 280 280 280 280 281 278 278 277 277 267
301 301 301 302 302 303 303 304 303 302 300 300 301 303 303 306 300 300 301 299 285 281 284 279 279 283 282 281 283 285 282 280 278 276 275 278 278 280 281 279 281 279 275 267 268 266 268
299 299 299 299 300 301 301 301 303 303 302 300 300 302 302 304 302 302 301 290 280 276 276 282 281 282 281 281 282 283 281 278 280 279 276 273 273 278 281 278 277 278 275 269 264 267 268
298 297 297 297 297 298 298 299 301 302 303 301 300 294 298 300 302 300 294 283 277 279 284 280 281 278 278 282 281 281 279 279 281 280 278 274 274 279 280 281 280 277 272 276 264 262 266
297 296 296 296 296 296 296 297 298 300 301 302 290 290 293 300 300 298 287 285 282 289 285 283 280 279 278 279 279 279 280 282 282 281 280 278 272 277 280 281 281 280 278 272 269 265 265
298 298 297 297 297 297 296 296 297 299 300 301 288 285 294 299 299 291 283 286 288 289 287 283 278 276 278 276 280 278 280 282 283 281 281 278 278 274 278 276 276 276 273 272 273 271 266
298 298 297 297 297 297 297 296 295 296 298 295 286 280 295 297 286 285 285 287 291 285 288 286 286 286 283 283 280 278 279 281 284 283 279 280 278 271 274 276 278 279 277 274 271 268 268
297 297 297 297 297 297 297 297 296 296 296 292 282 283 293 293 281 282 285 286 288 284 283 285 284 287 285 285 283 281 281 284 284 282 280 281 273 269 275 276 277 276 277 275 268 267 268
297 297 297 297 297 297 297 297 296 296 296 292 284 275 285 287 287 284 283 284 284 287 286 289 287 286 284 282 284 280 280 283 284 283 286 283 277 274 277 278 276 273 276 274 270 266 267
297 297 297 297 297 297 297 296 296 296 296 290 284 277 279 278 280 282 285 284 282 283 285 287 284 285 284 281 281 280 281 281 283 285 282 279 274 273 275 276 275 276 275 274 272 271 273
297 297 297 297 297 297 296 296 296 296 296 287 280 280 278 272 279 280 282 281 283 283 282 281 284 284 285 281 282 279 282 281 281 282 280 280 276 275 274 275 274 273 276 276 276 274 272
296 296 296 297 296 296 296 296 295 296 295 285 286 285 281 279 273 275 276 279 281 285 284 286 285 282 282 284 283 284 285 285 284 281 279 278 276 274 272 274 272 270 275 276 275 274 275
296 297 296 296 296 296 294 294 295 295 295 287 287 284 278 274 276 276 278 280 278 279 278 285 286 286 283 288 287 285 283 282 283 280 282 276 276 273 268 274 270 280 279 279 278 279 277
295 295 296 296 296 295 294 294 295 295 295 289 288 284 280 274 277 277 277 278 279 280 279 282 285 288 288 285 281 277 276 278 275 277 278 280 276 269 269 264 274 281 275 276 275 279 281
295 295 295 295 295 295 293 294 295 294 295 291 287 289 283 277 272 279 276 277 275 276 277 282 283 286 288 284 279 273 270 271 269 272 279 277 277 275 264 267 266 279 276 277 277 275 279
296 295 295 295 295 294 293 293 294 294 293 290 286 290 285 277 280 280 275 275 280 278 276 279 282 282 285 280 277 273 271 269 269 269 270 272 271 271 262 264 270 279 278 278 275 281 278
295 295 295 295 295 294 293 293 293 294 293 290 284 289 285 279 281 282 282 277 278 279 275 280 280 280 279 280 279 277 267 269 268 272 272 272 269 265 264 263 268 278 277 277 282 280 279
295 295 295 294 294 295 294 293 293 294 294 293 284 288 290 282 281 284 284 284 285 284 281 281 280 279 281 279 277 275 274 269 269 269 275 273 274 271 272 274 280 279 281 281 280 281 280
Wind_Speed
19 22 12 11 11 11 10 8 9 9 9 10 11 12 14 16 17 17 17 16 15 15 12 11 9 8 1 0 3 2 6 5 4 3 3 3 3 4 7 5 4 4 3 1 1 3 4
20 20 20 19 21 18 15 11 9 9 9 10 10 11 13 15 18 19 19 19 16 14 13 10 8 6 2 2 3 3 5 4 4 3 2 1 6 4 6 4 4 4 3 1 1 3 2
20 20 22 20 20 21 20 18 14 10 8 10 11 11 12 15 18 20 21 21 19 16 13 8 6 1 1 2 1 2 4 2 2 3 4 0 3 2 4 5 2 3 3 1 3 3 0
18 19 19 20 20 21 21 20 19 19 18 14 11 11 12 13 17 20 23 23 19 14 7 6 3 2 3 2 2 4 3 3 4 3 4 2 3 6 4 3 5 3 4 1 0 5 0
20 19 18 18 18 19 20 21 20 20 19 16 18 15 12 14 16 19 23 22 13 4 3 4 2 2 2 4 2 1 2 2 2 3 4 4 6 4 3 5 3 4 2 3 4 3 4
19 20 20 19 19 19 20 19 21 20 20 19 19 17 19 13 15 20 22 17 4 3 3 2 1 2 2 3 1 1 1 2 3 3 3 5 5 4 3 3 5 5 3 3 4 2 2
18 18 19 19 19 20 18 19 20 20 21 20 20 19 19 17 15 19 11 5 7 3 5 3 2 1 2 1 0 2 1 4 3 6 4 2 3 5 5 2 3 6 3 2 3 1 4
16 16 17 18 19 19 20 20 21 22 21 21 19 20 20 20 16 15 4 6 2 3 7 3 3 2 1 1 3 1 1 5 4 4 2 3 4 4 7 4 5 4 2 4 3 0 1
18 18 17 16 17 19 20 21 21 21 22 21 20 20 21 20 15 4 2 4 3 5 0 6 4 3 3 4 2 4 3 3 4 5 5 5 1 6 4 3 4 2 2 1 2 5 1
16 17 19 16 16 16 18 20 21 21 22 23 23 20 21 21 5 1 0 3 4 2 5 5 2 1 2 2 1 0 1 3 3 7 6 2 3 4 2 3 4 2 4 3 3 4 2
18 18 16 17 17 15 16 15 17 20 21 22 23 24 23 15 5 3 2 3 2 2 4 1 1 0 1 3 5 1 1 2 6 5 4 4 7 4 3 1 3 3 3 4 1 2 2
17 20 18 21 19 18 17 16 15 16 20 21 22 23 26 8 2 1 1 3 2 3 10 1 2 2 3 1 1 4 4 5 4 4 4 3 1 1 3 4 4 6 5 5 3 1 4
19 18 19 21 21 22 23 21 16 17 19 20 22 22 19 6 3 1 1 1 2 6 5 5 2 2 1 3 2 3 3 4 6 5 4 1 2 1 2 5 2 3 5 4 7 5 6
17 19 20 19 21 21 23 21 23 19 19 19 21 22 8 4 3 2 1 2 7 5 6 1 1 2 1 2 1 3 2 3 5 3 4 7 5 6 3 1 5 4 6 7 7 3 5
16 18 20 20 20 22 22 23 23 23 22 19 17 4 3 3 3 2 2 4 9 8 5 6 0 5 2 3 3 2 6 5 8 11 9 6 1 1 4 1 2 4 2 4 10 1 3
15 15 15 16 17 18 19 22 22 21 22 20 3 4 5 6 5 3 3 16 7 5 7 4 7 3 6 6 2 3 6 3 4 5 2 5 5 1 3 1 5 2 5 4 3 1 4
17 19 18 18 18 18 18 19 21 21 22 19 2 4 1 1 3 3 12 10 6 5 6 8 8 5 6 6 6 4 4 2 1 3 1 4 4 0 2 7 8 3 0 4 4 3 6
18 18 19 20 20 19 20 18 18 23 23 9 1 3 2 1 5 3 12 6 4 4 2 2 4 4 8 8 6 3 7 4 1 4 6 4 5 4 4 1 0 1 5 5 6 5 1
19 19 18 21 19 21 21 17 17 19 20 2 3 4 2 1 7 12 2 4 3 4 6 7 8 5 2 7 4 7 4 2 1 2 5 4 2 3 2 2 3 5 5 4 5 4 7
21 22 22 23 24 21 23 18 17 17 16 7 2 3 2 3 4 4 14 16 5 3 3 3 5 5 3 4 2 5 7 2 4 1 1 2 2 6 6 3 5 6 6 7 6 4 5
22 22 23 24 24 22 20 18 19 19 15 2 3 4 5 3 6 11 5 4 18 12 3 4 4 7 7 5 4 5 3 2 1 2 2 2 4 2 3 3 2 3 5 12 10 7 9
23 25 24 23 23 23 21 18 21 19 19 2 4 2 4 3 3 9 13 21 16 12 12 5 7 10 10 8 10 10 8 5 6 2 5 1 1 1 3 1 3 5 7 13 16 3 13
25 25 23 27 24 23 24 25 22 22 18 4 2 3 3 8 4 3 4 6 10 12 7 15 15 9 13 8 4 3 5 5 5 9 8 5 5 3 6 2 1 8 14 18 8 7 10
26 27 26 24 26 24 23 22 27 26 23 4 4 1 3 10 9 12 8 6 8 8 12 7 9 16 6 16 12 9 8 6 6 2 2 6 4 1 3 0 5 7 2 7 14 10 16
28 27 25 26 24 24 18 21 23 24 25 5 3 4 3 5 8 10 13 14 13 14 17 20 8 5 16 8 4 5 1 3 0 1 4 2 6 2 3 4 7 9 4 8 10 11 22
30 30 26 25 22 25 20 18 21 16 20 8 4 4 3 4 7 13 13 13 12 9 15 9 1 11 9 3 4 7 7 5 4 3 2 5 4 3 2 5 8 6 3 4 4 7 5
32 30 29 22 23 23 20 16 17 14 11 9 4 7 3 6 9 3 7 9 6 3 4 8 5 4 2 6 3 4 5 1 8 12 8 6 2 7 2 3 11 8 6 6 5 7 2
32 30 28 21 19 25 21 18 19 18 18 12 5 10 6 6 9 6 12 6 1 2 6 3 5 2 0 8 6 5 4 8 5 5 8 10 10 6 4 2 12 9 7 8 6 1 2
29 29 30 24 22 25 24 23 23 22 23 20 8 5 8 7 6 4 9 9 6 4 3 4 8 6 5 4 3 3 3 1 6 6 3 6 9 10 13 12 2 9 6 8 2 2 3
Wind_Direction
17 24 338 311 312 313 314 311 306 323 329 325 326 328 330 331 329 328 329 326 326 322 319 314 307 314 300 210 238 320 347 14 74 98 112 147 142 128 149 151 120 155 186 169 13 297 270
24 21 17 16 24 9 340 312 313 322 325 322 322 325 326 327 328 327 324 319 318 313 306 305 299 319 221 250 151 346 347 78 63 78 68 111 183 160 111 141 152 154 130 247 308 26 335
15 17 16 16 20 15 11 11 352 322 320 322 318 320 322 324 326 325 320 316 313 302 289 279 277 256 194 228 157 27 31 84 74 103 121 298 138 75 128 117 152 113 130 154 34 332 274
3 6 8 6 11 18 11 7 10 18 12 343 319 315 317 318 320 319 318 313 309 300 269 233 232 205 231 169 175 40 351 58 39 76 101 103 96 99 71 122 37 86 66 152 72 354 343
12 5 360 357 1 7 1 2 8 6 8 2 2 332 317 317 319 318 316 312 303 328 121 155 129 218 242 141 117 331 37 111 70 69 54 85 67 90 58 104 44 13 209 212 305 45 321
3 2 4 6 5 4 356 356 353 3 360 359 354 353 346 319 323 323 322 314 276 97 70 103 41 18 156 190 165 97 38 92 112 113 64 50 55 82 47 92 208 189 197 222 244 332 342
1 353 353 355 359 1 2 353 356 354 358 353 348 347 350 329 332 332 345 10 15 339 26 205 270 221 144 105 206 60 0 113 98 54 166 356 104 204 189 177 91 104 107 253 262 320 299
358 354 355 352 352 355 356 357 358 356 353 347 345 343 343 340 335 334 35 72 169 207 312 263 240 233 154 199 134 169 175 135 156 183 149 40 214 150 118 107 103 90 112 247 276 210 299
351 352 350 354 355 354 352 351 351 353 350 347 348 345 345 339 330 23 48 158 166 158 101 285 204 183 183 154 195 164 170 144 126 145 188 163 130 147 122 132 124 115 172 233 268 319 68
349 346 346 347 346 351 351 348 346 343 343 345 344 345 344 343 316 243 106 177 171 242 35 253 233 179 114 138 180 141 18 124 62 170 145 127 145 153 135 167 143 183 117 93 335 19 269
334 340 335 337 343 344 342 346 347 344 339 338 338 339 341 338 311 264 128 109 96 276 302 340 162 271 112 180 139 32 36 76 149 146 130 215 160 155 166 200 178 140 110 97 58 80 11
352 352 352 349 342 330 328 327 332 341 341 335 333 334 337 317 231 283 77 93 101 67 246 311 106 163 119 355 284 149 94 53 127 106 48 95 337 110 106 73 64 139 85 58 51 31 28
348 352 351 353 352 346 356 336 326 327 333 333 329 328 321 262 279 34 322 66 44 223 331 284 143 146 182 168 206 77 151 156 157 129 194 119 176 136 149 102 59 100 72 340 346 8 215
332 338 338 339 343 346 345 338 346 332 328 324 331 327 308 298 138 225 76 79 218 217 231 256 56 54 237 142 61 114 124 240 223 127 118 152 284 171 178 209 168 157 151 156 212 232 275
336 342 340 338 337 337 334 333 339 339 328 318 335 297 274 229 172 141 179 207 211 196 165 160 294 97 321 319 53 144 197 235 209 177 171 146 158 76 30 82 74 189 166 145 102 62 40
319 324 326 327 334 336 336 329 322 335 333 325 324 285 246 157 151 191 192 227 214 173 135 125 187 106 179 170 162 226 182 207 213 194 99 199 92 359 179 147 41 132 140 84 1 152 270
313 313 316 318 323 326 333 331 328 327 333 324 341 314 328 44 169 211 220 225 207 206 154 161 196 150 233 173 146 188 253 296 90 120 61 148 109 141 140 207 174 130 62 54 113 131 173
302 301 306 308 312 313 317 322 331 330 323 335 262 272 338 180 210 208 231 189 196 184 116 177 146 163 191 175 156 220 231 213 76 169 169 195 126 159 209 88 319 190 174 156 129 223 145
305 302 303 302 301 301 304 325 320 321 314 328 244 254 212 337 228 225 253 268 226 171 182 187 197 190 157 163 202 192 208 28 125 204 160 207 243 80 6 23 358 220 187 123 115 96 201
302 302 306 309 305 307 305 302 300 308 318 310 255 271 241 189 277 250 233 239 234 216 202 189 151 94 147 166 201 197 218 64 341 206 42 110 168 170 191 160 124 191 179 167 135 130 182
300 303 303 301 297 294 298 295 296 293 298 64 266 247 180 276 238 263 259 267 226 229 245 156 197 196 188 160 165 218 155 136 291 192 94 172 217 173 254 225 186 203 172 176 199 194 187
298 292 302 302 292 293 292 288 280 280 283 198 247 270 319 271 249 290 272 239 246 232 186 223 237 181 206 176 187 188 158 183 183 156 186 329 321 107 278 216 199 259 224 197 215 236 261
299 298 299 297 294 293 289 285 278 275 264 235 205 209 211 263 204 221 233 352 282 268 242 227 198 178 213 217 129 61 96 120 147 151 153 156 153 128 261 44 306 291 226 198 195 207 191
293 292 294 295 293 291 294 299 287 263 247 176 199 186 233 274 237 234 232 225 298 305 321 245 219 194 144 107 91 75 68 88 118 78 95 138 125 105 217 81 255 246 147 192 206 231 211
289 289 291 293 293 286 285 295 287 265 258 201 186 185 239 247 229 256 257 256 252 272 295 269 214 175 152 111 121 126 92 151 127 42 148 185 123 151 180 203 299 290 195 157 171 270 205
285 284 286 288 287 279 280 281 288 269 250 250 187 166 226 280 225 231 237 244 256 256 297 258 53 172 153 129 169 172 186 165 182 88 74 96 73 121 141 178 215 238 166 171 168 296 193
293 289 281 281 284 274 274 264 277 263 245 264 247 179 202 265 247 173 224 237 196 165 257 315 141 219 250 147 164 155 209 194 167 166 167 133 118 194 185 244 285 237 159 156 99 237 135
287 287 280 279 263 268 268 260 257 255 246 238 235 177 199 253 267 219 230 196 188 171 192 294 297 201 140 186 182 192 144 212 112 157 180 161 150 177 114 109 265 147 81 184 208 275 154
295 289 287 276 264 261 262 254 255 258 259 254 243 193 187 225 273 227 244 248 211 173 158 170 277 339 243 152 194 134 136 161 149 204 158 210 178 178 188 206 254 213 205 216 153 177 223